{"data":{"norad_id":62293,"epoch":"2026-09-22T22:03:03.824064Z","epoch_age_seconds":103438,"freshness":"FRESH","line1":"1 62293U 24238D   26265.91879426 -.00000047  00000+0  75149-4 0  9999","line2":"2 62293  59.9155 335.2402 0021093  70.4176 289.9107 13.75208977 89357","mean_motion":13.75208977,"eccentricity":0.0021093,"inclination_deg":59.9155,"raan_deg":335.2402,"arg_perigee_deg":70.4176,"mean_anomaly_deg":289.9107,"bstar":7.5149e-5,"rev_number":8935,"period_min":104.71135835234,"perigee_km":965.40670749199,"apogee_km":996.4516641034,"semimajor_km":7359.0661857977,"source":"CELESTRAK","updated_at":"2026-09-23T09:00:21.346859Z"}}